TimeMDT,TemperatureF,Dew PointF,Humidity,Sea Level PressureIn,VisibilityMPH,Wind Direction,Wind SpeedMPH,Gust SpeedMPH,PrecipitationIn,Events,Conditions,WindDirDegrees,DateUTC
12:15 AM,21.4,7.7,56,30.36,10.0,Calm,Calm,-,N/A,,Clear,0,2012-11-01 06:15:00
12:35 AM,20.7,9.3,62,30.36,10.0,SSE,3.5,-,N/A,,Clear,150,2012-11-01 06:35:00
12:55 AM,18.1,5.5,58,30.36,10.0,Calm,Calm,-,N/A,,Clear,0,2012-11-01 06:55:00
1:15 AM,15.6,2.8,57,30.36,10.0,Calm,Calm,-,N/A,,Clear,0,2012-11-01 07:15:00
1:35 AM,17.2,7.0,64,30.36,10.0,Calm,Calm,-,N/A,,Clear,0,2012-11-01 07:35:00
1:55 AM,20.3,7.7,58,30.36,10.0,Calm,Calm,-,N/A,,Clear,0,2012-11-01 07:55:00
2:15 AM,15.8,5.4,63,30.36,10.0,Calm,Calm,-,N/A,,Clear,0,2012-11-01 08:15:00
2:35 AM,14.9,5.5,66,30.36,10.0,Calm,Calm,-,N/A,,Clear,0,2012-11-01 08:35:00
3:15 AM,12.6,3.2,66,30.36,10.0,Calm,Calm,-,N/A,,Clear,0,2012-11-01 09:15:00
3:35 AM,15.4,5.2,64,30.35,10.0,Calm,Calm,-,N/A,,Clear,0,2012-11-01 09:35:00
4:15 AM,14.4,5.9,69,30.35,10.0,Calm,Calm,-,N/A,,Clear,0,2012-11-01 10:15:00
4:35 AM,16.3,6.4,65,30.35,10.0,Calm,Calm,-,N/A,,Clear,0,2012-11-01 10:35:00
4:55 AM,13.5,5.0,69,30.35,10.0,Calm,Calm,-,N/A,,Clear,0,2012-11-01 10:55:00
5:15 AM,11.1,3.0,70,30.35,10.0,Calm,Calm,-,N/A,,Clear,0,2012-11-01 11:15:00
5:35 AM,12.2,4.6,72,30.35,10.0,Calm,Calm,-,N/A,,Clear,0,2012-11-01 11:35:00
5:55 AM,13.8,5.5,70,30.34,10.0,Calm,Calm,-,N/A,,Clear,0,2012-11-01 11:55:00
6:35 AM,13.5,5.7,71,30.34,10.0,Calm,Calm,-,N/A,,Clear,0,2012-11-01 12:35:00
6:55 AM,12.7,5.4,72,30.34,10.0,Calm,Calm,-,N/A,,Clear,0,2012-11-01 12:55:00
7:15 AM,12.2,4.1,70,30.34,10.0,Calm,Calm,-,N/A,,Clear,0,2012-11-01 13:15:00
7:35 AM,10.9,4.1,74,30.34,10.0,Calm,Calm,-,N/A,,Clear,0,2012-11-01 13:35:00
8:15 AM,15.8,7.0,68,30.35,7.0,Calm,Calm,-,N/A,,Clear,0,2012-11-01 14:15:00
8:35 AM,21.4,10.2,62,30.35,3.0,Calm,Calm,-,N/A,,Haze,0,2012-11-01 14:35:00
9:15 AM,29.8,12.4,48,30.34,10.0,Calm,Calm,-,N/A,,Clear,0,2012-11-01 15:15:00
9:35 AM,32.5,12.0,43,30.33,10.0,Calm,Calm,-,N/A,,Clear,0,2012-11-01 15:35:00
9:55 AM,36.7,10.9,35,30.33,10.0,Calm,Calm,-,N/A,,Clear,0,2012-11-01 15:55:00
10:15 AM,39.6,9.5,29,30.32,10.0,Calm,Calm,-,N/A,,Clear,0,2012-11-01 16:15:00
10:35 AM,44.2,9.5,24,30.31,10.0,Calm,Calm,-,N/A,,Clear,0,2012-11-01 16:35:00
10:55 AM,53.8,5.5,14,30.31,10.0,ENE,3.5,-,N/A,,Clear,60,2012-11-01 16:55:00
11:15 AM,57.7,-3.6,8,30.30,10.0,WSW,12.7,19.6,N/A,,Clear,250,2012-11-01 17:15:00
11:35 AM,58.1,-6.3,7,30.30,10.0,WSW,13.8,23.0,N/A,,Clear,250,2012-11-01 17:35:00
12:15 PM,58.6,-9.4,6,30.28,10.0,WSW,12.7,26.5,N/A,,Clear,250,2012-11-01 18:15:00
12:35 PM,59.7,-13.5,5,30.27,10.0,West,21.9,27.6,N/A,,Clear,260,2012-11-01 18:35:00
12:55 PM,60.3,-13.5,5,30.25,10.0,West,19.6,28.8,N/A,,Clear,270,2012-11-01 18:55:00
1:15 PM,60.4,-15.3,4,30.24,10.0,West,13.8,28.8,N/A,,Clear,270,2012-11-01 19:15:00
1:35 PM,60.1,-17.1,4,30.23,10.0,West,11.5,27.6,N/A,,Clear,260,2012-11-01 19:35:00
1:55 PM,60.3,-17.3,4,30.23,10.0,WSW,23.0,26.5,N/A,,Clear,250,2012-11-01 19:55:00
2:15 PM,60.8,-17.0,4,30.23,10.0,WNW,15.0,29.9,N/A,,Clear,290,2012-11-01 20:15:00
2:35 PM,60.8,-16.4,4,30.22,10.0,West,11.5,26.5,N/A,,Clear,280,2012-11-01 20:35:00
3:15 PM,61.2,-22.9,4,30.21,10.0,West,19.6,27.6,N/A,,Clear,280,2012-11-01 21:15:00
3:35 PM,61.2,-20.4,4,30.21,10.0,West,11.5,21.9,N/A,,Clear,270,2012-11-01 21:35:00
3:55 PM,60.1,-17.9,4,30.21,10.0,WSW,9.2,19.6,N/A,,Clear,250,2012-11-01 21:55:00
4:15 PM,60.4,-15.9,4,30.20,10.0,West,9.2,17.3,N/A,,Clear,260,2012-11-01 22:15:00
4:35 PM,59.9,-17.9,4,30.20,10.0,West,12.7,20.7,N/A,,Clear,280,2012-11-01 22:35:00
4:55 PM,59.0,-15.2,5,30.19,10.0,West,13.8,19.6,N/A,,Clear,270,2012-11-01 22:55:00
5:15 PM,57.6,-12.3,5,30.20,10.0,West,10.4,-,N/A,,Clear,260,2012-11-01 23:15:00
5:35 PM,56.7,-11.9,6,30.20,10.0,SSW,6.9,-,N/A,,Clear,210,2012-11-01 23:35:00
5:55 PM,53.8,-6.5,8,30.20,10.0,SW,5.8,-,N/A,,Clear,220,2012-11-01 23:55:00
6:15 PM,53.6,-7.2,8,30.20,10.0,SSW,5.8,-,N/A,,Clear,210,2012-11-02 00:15:00
6:35 PM,43.9,0.3,16,30.20,10.0,Calm,Calm,-,N/A,,Clear,0,2012-11-02 00:35:00
6:55 PM,38.5,2.1,22,30.20,10.0,West,6.9,-,N/A,,Clear,270,2012-11-02 00:55:00
7:15 PM,37.8,1.9,22,30.20,10.0,West,4.6,-,N/A,,Clear,270,2012-11-02 01:15:00
7:35 PM,33.6,2.7,27,30.21,10.0,Calm,Calm,-,N/A,,Clear,0,2012-11-02 01:35:00
7:55 PM,31.6,2.8,30,30.21,10.0,Calm,Calm,-,N/A,,Clear,0,2012-11-02 01:55:00
8:15 PM,32.4,2.8,29,30.20,10.0,Calm,Calm,-,N/A,,Clear,0,2012-11-02 02:15:00
8:35 PM,29.8,3.2,32,30.20,10.0,Calm,Calm,-,N/A,,Clear,0,2012-11-02 02:35:00
8:55 PM,31.6,3.6,30,30.20,10.0,SSE,4.6,-,N/A,,Clear,160,2012-11-02 02:55:00
9:15 PM,31.1,4.5,32,30.20,10.0,Calm,Calm,-,N/A,,Clear,0,2012-11-02 03:15:00
9:35 PM,30.9,4.1,32,30.20,10.0,WSW,3.5,-,N/A,,Clear,240,2012-11-02 03:35:00
9:55 PM,32.0,3.7,30,30.20,10.0,SSE,4.6,-,N/A,,Clear,160,2012-11-02 03:55:00
10:15 PM,31.5,4.5,32,30.20,10.0,South,4.6,-,N/A,,Clear,180,2012-11-02 04:15:00
10:35 PM,29.8,5.5,36,30.20,10.0,SSE,5.8,-,N/A,,Clear,150,2012-11-02 04:35:00
10:55 PM,30.6,4.8,34,30.20,10.0,Calm,Calm,-,N/A,,Clear,0,2012-11-02 04:55:00
11:15 PM,29.8,4.8,35,30.20,10.0,Calm,Calm,-,N/A,,Clear,0,2012-11-02 05:15:00
11:35 PM,29.3,4.8,35,30.20,10.0,Calm,Calm,-,N/A,,Clear,0,2012-11-02 05:35:00
11:55 PM,27.1,4.8,39,30.20,10.0,Calm,Calm,-,N/A,,Clear,0,2012-11-02 05:55:00